sat.trackr.live / text

‹ back to catalog

BEIDOU-3 M22 (C44)

NORAD 44793 · 2019-078A

PAYLOAD ACTIVE UNKNOWN

§ Identity

Operator
Country
PRC
Launch date
2019-11-23
Launch site
XICLF
Launch vehicle
Mass (kg)
RCS (m²)

Purposes: earth_obs, nav

External: N2YO · Heavens-Above · Gunter

§ Orbital elements

Epoch: 2026-05-24T10:56:34.065312Z

Period
773.25 min
Inclination
53.9590°
Eccentricity
0.0006956
Mean motion
1.86227016 rev/d
Perigee alt
21,509.0 km
Apogee alt
21,547.9 km
Semi-major
27,906.6 km
B*
0.0000e+0
RAAN
300.6620°
Arg perigee
49.8276°
Mean anomaly
310.2109°
Rev number
4,420

§ Raw data

BEIDOU-3 M22 (C44)1 44793U 19078A   26144.45594983 -.00000084  00000+0  00000+0 0  99972 44793  53.9590 300.6620 0006956  49.8276 310.2109  1.86227016 44208

JSON: /api/v1/satellites/44793 · /tle

For live sub-satellite position, see the globe view (requires WebGL).

§ Visibility from observer

Set your observer location to see the next 7 days of passes ≥ 10°. The values pass through the URL so the page stays shareable.

No JS? Fill the form by hand. The geolocation button needs JavaScript.